Wind_Speed
6 6 6 7 8 8 7 7 6 5 4 5 6 7 7 7 8 10 10 10 10 11 11 12 12 12 13 14 15 15 16 16 16 17 17 18 18 18 18 19 19 19 19 18 18 18 17 16 15
7 6 6 7 7 8 7 7 7 7 6 6 7 8 8 9 9 10 11 11 11 12 13 13 13 14 15 16 16 17 18 18 19 19 19 19 19 20 20 21 21 20 20 20 19 19 18 17 16
8 7 7 7 8 7 7 7 7 7 7 8 9 9 9 10 10 11 12 12 13 13 14 14 15 16 16 16 16 17 19 20 20 21 22 22 21 22 23 23 23 22 22 22 21 20 19 18 17
9 8 8 8 8 8 8 8 9 8 8 9 10 10 10 11 11 12 12 13 14 14 15 15 16 16 17 17 18 19 20 21 21 22 23 24 23 24 24 24 24 24 22 22 22 22 20 19 18
11 10 9 9 9 9 9 9 9 9 10 10 10 9 10 11 11 12 13 14 15 15 15 15 16 16 17 18 18 19 20 21 22 23 24 26 26 26 25 25 25 25 24 23 23 23 22 20 20
12 11 10 10 10 10 9 9 10 11 10 9 9 9 9 11 11 12 13 14 14 14 15 16 16 16 17 17 18 19 20 21 22 23 24 25 26 26 26 26 26 25 25 25 25 24 23 22 22
14 13 12 12 12 10 10 9 10 11 11 11 11 11 11 10 11 12 13 13 14 14 15 15 15 16 16 17 17 18 19 20 21 21 22 24 25 26 27 27 27 27 25 25 26 25 24 24 23
16 15 14 12 13 11 11 11 11 12 12 12 12 12 12 11 11 12 12 13 13 14 14 14 14 14 15 15 16 16 17 18 19 19 20 22 23 24 25 26 27 27 27 26 26 26 25 25 24
17 15 14 13 13 12 11 11 11 12 13 13 12 12 12 11 11 12 12 12 12 13 13 13 13 14 14 14 14 15 16 17 17 18 19 20 21 22 23 24 25 26 27 27 27 26 25 25 25
18 15 15 13 14 13 12 12 12 13 13 12 12 12 11 11 11 11 11 11 11 11 12 12 13 13 14 14 15 16 16 17 17 18 19 19 20 21 21 22 24 25 26 27 27 27 26 25 24
18 17 15 13 14 13 13 12 12 13 13 13 13 11 10 10 10 10 10 10 10 11 11 12 13 13 14 15 16 17 17 17 17 18 18 18 19 20 21 21 22 23 24 25 26 27 27 26 25
20 18 16 15 15 14 14 12 12 12 13 13 12 12 10 10 10 9 9 8 9 10 11 12 13 14 15 16 16 17 18 18 18 18 18 18 18 19 20 20 21 22 23 25 25 26 27 27 26
20 18 17 16 15 15 14 13 12 12 12 12 12 10 9 8 8 8 8 8 8 10 11 12 13 14 15 16 17 18 18 19 19 19 19 19 19 19 19 20 20 21 22 24 25 26 26 26 27
20 19 18 17 15 15 14 13 13 12 12 12 11 9 7 7 7 7 7 8 9 10 10 11 13 14 15 16 17 18 19 19 20 20 19 19 19 19 19 19 19 20 21 22 23 24 25 25 27
20 18 17 16 14 13 13 13 12 12 11 10 9 7 6 6 6 6 7 7 9 9 10 11 13 14 16 17 18 19 20 20 20 20 19 19 19 18 18 18 17 17 19 20 21 22 24 25 26
21 19 16 14 13 12 12 13 12 11 11 9 8 7 6 6 6 6 7 7 8 9 10 11 13 15 16 18 19 20 20 20 20 20 19 19 19 18 18 17 16 16 16 17 19 20 22 24 25
20 17 14 12 13 12 12 12 11 10 9 8 7 7 7 6 5 6 6 7 8 9 10 12 13 15 16 18 19 20 20 21 20 20 20 19 18 18 17 16 15 15 15 15 16 18 20 22 24
17 15 14 13 13 12 11 11 10 10 8 8 7 7 7 6 5 5 6 7 8 9 10 12 13 15 17 18 19 20 20 21 20 20 20 19 19 17 16 15 14 14 14 14 14 15 17 19 22
16 16 13 12 12 10 10 11 10 10 8 8 7 6 6 6 6 5 6 6 7 9 10 12 14 15 17 18 19 20 20 21 20 20 20 19 19 18 16 15 14 13 13 12 13 14 15 17 19
16 14 13 12 10 8 9 9 9 8 8 7 6 6 7 7 7 6 5 6 7 9 10 12 14 15 16 18 18 19 20 21 20 20 20 20 19 18 17 15 13 12 11 11 11 12 13 15 17
14 13 12 11 7 7 7 7 7 8 8 7 7 7 8 7 7 6 6 6 7 9 11 12 14 15 16 18 18 19 20 20 20 20 19 19 19 18 17 14 13 11 10 9 10 11 11 13 15
14 13 9 8 7 5 6 6 7 9 8 7 7 7 8 7 7 6 6 7 8 9 11 12 14 15 16 17 18 19 20 20 20 20 20 19 19 18 16 15 13 12 10 9 9 10 11 11 13
12 10 8 6 5 4 5 5 8 10 8 7 7 7 7 7 7 7 7 7 8 9 11 12 13 15 16 17 18 19 19 20 20 20 20 19 19 18 16 15 13 12 10 8 8 9 10 11 12
9 7 5 4 3 3 4 5 7 10 8 7 7 7 7 8 8 8 8 8 8 9 11 12 13 14 16 17 18 19 19 19 20 20 20 19 18 18 17 15 13 12 10 9 8 8 9 10 11
8 6 3 1 3 4 7 7 9 9 8 9 8 8 8 8 8 8 8 8 8 9 10 12 13 14 15 16 17 18 19 19 20 20 20 19 18 18 17 15 13 12 10 9 8 7 7 9 9
8 6 5 3 2 4 7 9 11 9 9 9 9 9 9 8 9 8 8 8 9 9 10 11 13 14 15 16 17 18 18 19 19 20 20 20 19 18 17 15 14 12 10 9 8 7 7 7 8
7 7 6 4 3 3 4 9 11 11 10 9 9 9 9 9 9 9 9 9 9 9 10 12 13 14 15 16 17 18 18 18 19 19 20 20 19 19 17 15 14 12 11 10 8 7 6 6 7
6 6 6 5 4 3 5 7 11 11 12 11 10 10 10 10 10 10 9 9 9 9 10 11 13 13 14 15 17 17 17 18 18 19 19 19 19 18 17 16 14 13 12 11 9 8 6 6 6
5 6 6 6 5 5 8 10 12 13 13 13 12 11 11 11 11 11 10 9 9 9 10 11 13 13 14 15 16 17 17 17 18 18 19 19 18 18 17 16 14 13 12 11 10 8 7 6 6
8 8 8 9 9 8 10 11 13 14 14 13 13 12 12 12 12 11 11 10 10 10 10 11 13 13 14 15 16 16 16 17 17 18 18 18 18 18 17 16 15 14 13 12 11 9 7 6 5
Wind_Direction
310 322 326 329 328 329 325 328 324 320 283 276 288 292 289 290 292 294 295 298 298 298 298 295 291 286 283 282 279 275 272 269 268 267 264 261 255 253 251 252 254 253 251 251 252 251 251 252 253
297 301 306 315 318 323 316 320 319 314 299 289 287 291 293 292 295 295 295 296 299 299 297 295 292 290 287 285 281 277 273 269 270 268 267 265 260 256 255 253 254 256 254 252 252 253 251 250 251
281 285 293 304 306 306 308 311 308 309 305 294 292 296 296 296 299 298 298 298 300 300 296 294 292 290 288 287 284 280 277 272 271 270 266 266 265 261 259 257 256 258 255 254 252 252 251 249 247
271 275 285 292 294 293 299 308 308 308 304 298 296 300 301 300 299 298 300 300 300 301 298 296 295 293 290 287 285 283 281 276 272 271 268 266 267 265 262 259 259 258 257 256 255 250 249 248 245
261 268 276 280 283 288 299 304 303 307 307 303 301 304 306 305 304 303 303 302 303 305 304 302 300 296 293 292 290 287 285 282 277 274 272 270 268 267 264 261 259 259 257 257 255 251 249 245 243
256 261 267 269 275 286 294 297 300 304 306 305 306 307 305 305 305 305 306 307 309 309 309 307 306 304 300 297 294 290 288 286 283 280 276 273 270 268 265 263 262 263 259 257 253 250 249 245 242
251 255 259 262 270 279 286 291 296 302 305 302 304 307 305 304 306 309 311 313 315 314 312 310 310 311 309 305 301 296 293 290 287 285 281 277 273 270 267 265 263 262 262 258 254 250 249 245 243
248 252 255 262 271 276 284 294 299 301 304 302 301 303 304 305 310 312 313 316 319 319 319 319 319 319 317 314 311 307 303 299 295 292 287 282 278 275 272 269 265 262 260 258 255 252 250 246 243
245 247 252 259 271 280 282 290 296 298 301 300 299 301 303 308 313 314 316 320 323 326 328 329 331 331 330 328 323 319 314 309 305 300 296 291 286 281 275 271 267 263 259 257 255 254 251 247 243
241 244 250 254 266 276 281 288 292 293 299 300 299 298 301 309 312 315 319 323 327 330 334 337 338 339 337 335 332 328 322 315 311 307 301 295 291 286 280 273 268 265 261 258 256 253 251 246 243
238 241 247 253 263 271 280 285 288 291 295 299 301 297 301 308 314 317 320 324 330 335 338 341 341 340 337 335 334 331 329 324 319 315 308 302 297 291 286 279 271 266 263 259 255 253 251 248 244
234 237 242 251 259 267 276 282 287 292 298 301 305 301 302 307 312 317 321 325 332 337 342 343 342 342 341 339 337 335 333 329 324 319 315 310 304 297 291 284 275 268 264 260 256 253 251 248 244
233 237 244 246 253 263 272 280 284 287 293 300 300 295 300 305 307 315 320 326 335 340 341 342 342 342 342 342 341 339 335 331 327 322 316 312 307 301 294 288 280 271 265 261 258 253 249 248 244
229 233 239 245 252 260 268 275 282 284 291 297 295 293 301 306 310 318 324 329 335 340 341 340 340 342 344 345 343 341 339 336 331 327 321 315 311 305 299 292 285 276 268 263 259 254 249 244 243
223 230 236 242 249 260 268 276 279 283 290 294 291 290 296 305 310 318 324 328 335 338 341 341 341 342 343 344 344 343 341 339 335 332 326 321 316 311 304 297 291 282 272 265 259 254 249 242 241
222 226 233 240 248 258 268 280 275 279 284 285 285 286 292 305 310 319 327 331 335 337 339 341 342 343 342 342 342 342 341 340 338 336 332 327 321 316 310 301 294 289 278 268 261 254 247 242 240
219 223 232 242 247 258 270 276 275 280 282 278 277 280 283 294 305 317 325 329 334 338 340 342 342 343 342 341 342 342 342 342 340 338 335 331 328 322 316 308 299 292 283 272 263 255 248 242 238
214 219 226 241 252 255 268 273 278 281 277 277 272 272 278 288 298 309 318 325 333 338 340 341 342 341 341 341 341 342 343 343 341 340 339 337 334 329 322 313 305 296 287 276 265 255 248 242 238
206 214 223 238 249 254 265 273 280 284 283 274 266 267 276 287 297 306 315 321 329 335 337 339 341 341 341 341 342 343 344 344 343 342 341 339 338 335 329 320 310 301 292 280 265 255 249 243 239
207 211 222 235 244 257 265 275 282 283 287 276 266 274 277 283 293 302 312 319 326 333 337 338 339 340 342 343 343 344 345 345 345 344 342 342 341 338 334 328 320 309 296 282 268 258 251 245 239
206 215 222 236 236 257 270 284 286 281 287 278 270 274 276 278 288 293 305 315 322 331 335 337 338 339 341 343 344 345 346 347 347 346 345 344 343 340 338 333 328 318 304 287 276 261 253 245 240
209 215 228 245 253 263 277 289 292 291 287 272 270 276 277 281 287 293 300 308 317 326 332 334 336 338 340 343 344 346 346 348 348 348 347 346 346 344 341 338 334 327 314 297 284 269 258 251 244
208 218 234 248 261 273 283 284 294 291 288 274 271 276 282 284 284 289 295 303 313 322 328 332 335 337 341 343 345 346 347 348 349 349 349 348 347 347 346 343 340 334 324 307 290 277 268 258 247
206 211 217 234 272 304 283 281 285 279 289 288 279 278 279 282 283 286 292 299 309 318 325 330 334 336 340 343 345 346 347 348 349 350 350 350 350 350 348 346 343 338 331 320 302 284 272 261 253
199 198 191 293 335 326 302 289 269 269 286 287 286 281 279 281 282 285 290 296 306 315 322 328 332 335 338 341 344 346 347 349 350 352 353 353 353 352 350 348 346 343 337 328 315 299 280 264 257
194 200 208 232 245 287 302 298 292 291 285 284 284 283 281 281 282 284 290 294 303 313 319 325 330 334 337 340 343 345 346 348 351 352 354 354 355 354 353 351 350 348 344 337 326 313 293 272 259
210 214 226 233 246 269 282 290 296 288 284 284 285 284 282 282 282 282 287 291 297 307 315 322 327 332 336 339 342 343 346 348 351 353 354 355 355 356 355 355 353 351 349 344 334 322 306 282 265
239 237 238 245 245 256 275 273 277 288 292 292 289 286 283 284 283 281 284 289 295 304 313 320 326 330 334 338 340 342 344 347 350 352 353 355 356 357 358 358 357 356 352 348 341 328 316 298 277
249 251 256 257 257 257 267 271 278 289 291 291 290 287 283 284 284 282 282 287 292 300 309 318 325 329 332 336 339 340 342 345 348 351 353 355 357 358 359 359 359 357 357 356 350 341 323 307 291
270 259 253 255 254 254 273 283 281 286 287 288 287 285 282 282 283 282 282 284 288 294 303 312 321 327 330 333 337 339 341 343 346 349 352 355 357 359 359 359 358 358 358 359 356 348 336 322 305
Height
5872 5871 5871 5872 5871 5870 5868 5868 5868 5868 5868 5868 5867 5867 5868 5868 5869 5870 5868 5866 5866 5866 5865 5864 5863 5863 5862 5862 5862 5861 5861 5861 5861 5861 5861 5861 5861 5862 5863 5863 5864 5864 5865 5865 5866 5866 5867 5867 5868
5871 5871 5872 5871 5870 5869 5868 5867 5868 5868 5868 5867 5866 5866 5867 5867 5867 5866 5865 5865 5864 5864 5863 5862 5861 5860 5860 5859 5859 5858 5858 5858 5857 5857 5857 5857 5858 5859 5859 5860 5860 5861 5861 5862 5863 5863 5864 5864 5865
5870 5870 5871 5870 5869 5869 5868 5867 5867 5866 5866 5866 5866 5866 5866 5865 5865 5864 5863 5863 5862 5862 5860 5859 5858 5858 5857 5856 5855 5855 5854 5854 5854 5854 5854 5854 5854 5855 5855 5856 5857 5857 5858 5859 5859 5860 5861 5862 5862
5869 5869 5870 5870 5868 5867 5866 5866 5865 5865 5865 5865 5864 5865 5864 5863 5863 5862 5861 5861 5860 5859 5858 5857 5856 5855 5854 5853 5852 5851 5850 5850 5850 5849 5849 5849 5849 5850 5851 5851 5852 5853 5854 5855 5856 5856 5857 5858 5859
5866 5867 5868 5867 5866 5865 5865 5865 5864 5864 5864 5863 5863 5863 5862 5862 5861 5860 5859 5858 5857 5856 5855 5853 5852 5851 5850 5849 5848 5847 5846 5846 5845 5845 5844 5844 5844 5845 5845 5846 5847 5848 5849 5850 5851 5852 5853 5855 5856
5865 5865 5866 5865 5864 5863 5864 5863 5863 5862 5862 5862 5861 5861 5861 5860 5859 5858 5857 5856 5854 5853 5852 5851 5849 5848 5847 5846 5844 5843 5842 5841 5840 5840 5839 5839 5839 5839 5840 5841 5842 5843 5844 5845 5847 5848 5849 5851 5852
5862 5863 5863 5863 5862 5862 5862 5861 5861 5861 5861 5861 5860 5859 5858 5857 5857 5856 5855 5853 5852 5851 5850 5848 5847 5845 5844 5842 5841 5839 5838 5837 5836 5835 5834 5834 5833 5833 5834 5835 5836 5837 5838 5840 5841 5843 5844 5846 5848
5858 5861 5860 5860 5860 5860 5860 5860 5860 5860 5859 5859 5858 5858 5857 5856 5855 5854 5853 5851 5850 5848 5847 5845 5844 5843 5841 5839 5837 5835 5834 5833 5832 5830 5830 5829 5828 5828 5828 5829 5830 5831 5832 5834 5836 5837 5839 5841 5843
5855 5858 5858 5858 5858 5859 5859 5859 5858 5858 5858 5857 5856 5856 5855 5854 5853 5852 5851 5850 5848 5847 5845 5843 5842 5840 5838 5836 5835 5833 5831 5829 5828 5827 5825 5824 5823 5823 5823 5823 5824 5825 5826 5828 5829 5831 5833 5835 5838
5852 5854 5855 5855 5856 5856 5856 5857 5857 5856 5856 5855 5855 5854 5853 5852 5851 5850 5849 5848 5847 5845 5844 5842 5840 5838 5836 5834 5832 5830 5828 5827 5825 5823 5822 5820 5819 5818 5818 5818 5818 5819 5820 5822 5823 5825 5828 5830 5833
5848 5850 5851 5851 5853 5853 5854 5855 5855 5854 5854 5853 5853 5852 5851 5850 5850 5849 5848 5847 5845 5844 5842 5841 5839 5837 5835 5833 5830 5828 5826 5824 5822 5820 5818 5816 5815 5813 5813 5813 5813 5813 5814 5815 5817 5819 5822 5825 5827
5844 5846 5847 5849 5851 5852 5852 5853 5853 5853 5853 5851 5850 5850 5849 5849 5848 5847 5846 5845 5844 5843 5841 5839 5838 5836 5834 5831 5829 5826 5824 5821 5819 5817 5814 5813 5811 5809 5808 5807 5807 5808 5809 5810 5811 5813 5815 5819 5822
5840 5843 5845 5847 5849 5850 5850 5851 5851 5851 5850 5850 5849 5848 5848 5847 5847 5846 5845 5844 5843 5842 5840 5839 5837 5835 5832 5830 5827 5825 5822 5819 5816 5813 5811 5809 5807 5805 5803 5802 5802 5802 5803 5804 5805 5807 5810 5812 5816
5837 5840 5842 5844 5846 5847 5848 5848 5849 5849 5848 5848 5847 5846 5845 5846 5845 5845 5844 5843 5842 5841 5839 5838 5836 5834 5831 5829 5826 5823 5820 5817 5814 5811 5808 5805 5803 5801 5799 5797 5796 5796 5797 5798 5799 5801 5803 5806 5809
5833 5837 5839 5841 5843 5845 5846 5846 5846 5846 5846 5846 5846 5845 5845 5845 5844 5844 5843 5842 5841 5840 5838 5837 5835 5833 5830 5828 5825 5822 5818 5815 5812 5808 5805 5802 5799 5797 5794 5793 5792 5791 5791 5792 5793 5795 5797 5800 5803
5830 5834 5837 5839 5841 5842 5845 5845 5844 5844 5844 5844 5844 5844 5844 5844 5843 5843 5842 5841 5840 5839 5838 5836 5834 5832 5829 5826 5823 5820 5817 5813 5809 5806 5802 5799 5796 5793 5791 5789 5787 5786 5786 5786 5787 5789 5791 5794 5797
5829 5832 5835 5837 5838 5840 5842 5843 5842 5842 5842 5842 5842 5843 5843 5843 5843 5842 5841 5840 5839 5838 5837 5835 5833 5831 5828 5826 5822 5819 5815 5811 5807 5804 5800 5796 5793 5790 5787 5785 5783 5782 5782 5782 5782 5784 5785 5788 5792
5828 5831 5833 5835 5836 5839 5840 5840 5840 5840 5840 5840 5841 5841 5841 5841 5841 5841 5840 5839 5838 5837 5836 5834 5832 5830 5828 5825 5821 5818 5814 5810 5806 5802 5798 5794 5790 5787 5784 5782 5780 5779 5778 5778 5778 5779 5781 5783 5786
5824 5828 5830 5833 5834 5836 5838 5838 5839 5839 5839 5839 5839 5840 5840 5840 5840 5840 5839 5838 5837 5836 5835 5833 5831 5829 5827 5824 5820 5817 5813 5809 5804 5800 5796 5792 5788 5785 5782 5779 5777 5775 5775 5774 5775 5776 5777 5779 5782
5822 5826 5829 5831 5833 5835 5837 5837 5837 5837 5837 5838 5838 5839 5839 5839 5839 5838 5838 5837 5836 5835 5834 5832 5830 5828 5826 5822 5819 5816 5812 5807 5803 5799 5795 5791 5787 5783 5780 5777 5775 5773 5772 5771 5771 5772 5774 5775 5778
5822 5825 5827 5829 5831 5834 5836 5836 5836 5836 5837 5837 5837 5838 5838 5837 5838 5837 5837 5836 5835 5834 5833 5831 5829 5827 5824 5821 5818 5814 5810 5806 5802 5798 5794 5790 5786 5782 5778 5775 5773 5771 5769 5769 5769 5769 5770 5772 5774
5822 5824 5827 5829 5831 5833 5835 5835 5835 5835 5836 5836 5836 5836 5837 5837 5836 5836 5836 5835 5834 5833 5832 5830 5828 5826 5823 5820 5817 5813 5810 5806 5801 5797 5793 5789 5785 5780 5777 5774 5771 5769 5767 5767 5766 5767 5768 5769 5770
5822 5825 5828 5830 5831 5833 5834 5835 5835 5834 5834 5835 5835 5835 5835 5835 5835 5835 5835 5834 5833 5832 5830 5829 5827 5825 5822 5819 5816 5812 5809 5805 5801 5796 5792 5788 5784 5780 5776 5772 5770 5768 5766 5765 5764 5765 5765 5766 5767
5823 5826 5828 5830 5831 5833 5834 5835 5835 5833 5833 5834 5834 5834 5834 5834 5834 5834 5833 5832 5831 5830 5829 5827 5826 5823 5821 5818 5815 5811 5808 5804 5800 5796 5792 5787 5783 5779 5775 5772 5769 5766 5765 5764 5763 5762 5763 5763 5764
5824 5827 5829 5830 5831 5833 5833 5834 5834 5832 5833 5832 5833 5833 5833 5832 5832 5832 5831 5831 5830 5829 5828 5826 5824 5822 5820 5817 5814 5810 5807 5803 5799 5795 5791 5787 5783 5779 5775 5771 5768 5766 5764 5762 5761 5761 5761 5761 5762
5824 5826 5829 5830 5831 5833 5833 5832 5832 5831 5831 5831 5831 5831 5831 5831 5830 5830 5830 5829 5828 5827 5826 5825 5823 5821 5818 5816 5813 5809 5806 5802 5799 5795 5791 5786 5782 5778 5775 5771 5768 5765 5763 5762 5760 5759 5759 5759 5760
5824 5825 5827 5828 5830 5831 5833 5832 5831 5829 5829 5830 5829 5829 5829 5829 5828 5828 5828 5827 5827 5826 5825 5823 5822 5819 5817 5814 5812 5808 5805 5802 5798 5794 5790 5786 5782 5778 5774 5771 5768 5765 5763 5761 5760 5758 5757 5757 5758
5824 5825 5827 5828 5829 5830 5831 5831 5830 5828 5827 5828 5827 5827 5827 5827 5826 5826 5826 5825 5825 5824 5823 5822 5820 5818 5816 5813 5810 5807 5804 5801 5797 5794 5790 5786 5782 5778 5774 5771 5768 5765 5763 5760 5759 5757 5756 5756 5756
5824 5825 5825 5826 5827 5828 5829 5831 5828 5827 5826 5826 5825 5825 5824 5824 5824 5824 5824 5823 5823 5822 5821 5820 5818 5816 5814 5812 5809 5806 5803 5800 5797 5793 5790 5786 5782 5778 5775 5771 5768 5765 5763 5760 5758 5756 5755 5755 5755
5822 5823 5824 5825 5825 5826 5826 5829 5825 5824 5824 5823 5823 5822 5822 5822 5822 5821 5821 5821 5821 5820 5819 5818 5817 5815 5813 5810 5808 5805 5802 5799 5796 5793 5789 5786 5782 5779 5775 5772 5768 5766 5763 5760 5758 5756 5755 5754 5754